Location: ??????????
(42.1626°N, 44.1160°E)
Time: 23:36:07
(UTC+00:00)

FENGYUN 1C DEB - Pass Details

Date: 25 September 2021
Orbit: 836 x 1129 km, 99.1° (Epoch: 22 October)

Event Time Altitude Azimuth Distance (km) Brightness Sun altitude
Exits shadow 22:22:26 14° 18° (NNE) 2,204 ? -44.6°
Drops below altitude 10° 22:23:20 10° 11° (N) 2,470 ? -44.5°
Sets 22:26:03 0° 358° (N) 3,398 ? -44.2°
